Location: Santa Cristina
(46.5667°N, 11.7167°E)
Time: 06:31:15
(UTC+00:00)

Cosmos 2297 - Pass Details

Date: 21 April 2021
Orbit: 837 x 857 km, 71.0° (Epoch: 15 May)

Event Time Altitude Azimuth Distance (km) Brightness Sun altitude
Exits shadow 02:02:48 33° 193° (SSW) 1,403 4.4 -20.2°
Maximum altitude 02:05:28 76° 114° (ESE) 884 3.8 -19.8°
Drops below altitude 10° 02:11:10 10° 29° (NNE) 2,489 7.2 -19.1°
Sets 02:13:38 0° 28° (NNE) 3,426 8.2 -18.8°
